WZZ1009 LHBP-UKBB

Flight info

Callsign WZZ1009
Flight time 1h 21m
Altitude 37000
Route VETIK DCT PERIT DCT GEMTO P26 TAKON M986 SLV
Aircraft A320/M-SDE3FGHIRWY/LB1

Departure

Time 2026-05-04 11:51
Airport Budapest Liszt Ferenc International Airport (LHBP)

Arrival

Time 2026-05-04 13:13
Airport Boryspil International Airport (UKBB)
Time Latitude Longitude Altitude Speed Heading
2026-05-04 11:31 47.43463 19.25692 456 ft 0 kts 312°
2026-05-04 11:44 47.43459 19.25697 457 ft 4 kts 314°
2026-05-04 11:44 47.43439 19.25720 457 ft 4 kts 346°
2026-05-04 11:44 47.43414 19.25718 456 ft 4 kts 27°
2026-05-04 11:45 47.43394 19.25697 456 ft 2 kts 42°
2026-05-04 11:45 47.43393 19.25696 456 ft 0 kts 42°
2026-05-04 11:47 47.43393 19.25697 456 ft 1 kts 42°
2026-05-04 11:48 47.43418 19.25730 457 ft 7 kts 42°
2026-05-04 11:48 47.43461 19.25787 457 ft 9 kts 41°
2026-05-04 11:48 47.43514 19.25763 457 ft 10 kts 312°
2026-05-04 11:48 47.43571 19.25707 457 ft 11 kts
2026-05-04 11:49 47.43633 19.25775 457 ft 12 kts 43°
2026-05-04 11:49 47.43699 19.25865 457 ft 14 kts 41°
2026-05-04 11:49 47.43774 19.25964 457 ft 15 kts 42°
2026-05-04 11:49 47.43856 19.26075 457 ft 17 kts 42°
2026-05-04 11:50 47.43946 19.26195 458 ft 18 kts 42°
2026-05-04 11:50 47.44036 19.26320 462 ft 17 kts 47°
2026-05-04 11:50 47.44071 19.26449 471 ft 12 kts 80°
2026-05-04 11:50 47.44044 19.26565 470 ft 14 kts 132°
2026-05-04 11:51 47.43914 19.26773 471 ft 57 kts 133°
2026-05-04 11:51 47.43498 19.27446 472 ft 116 kts 132°
2026-05-04 11:51 47.42856 19.28488 525 ft 155 kts 133°
2026-05-04 11:51 47.42175 19.29638 1154 ft 148 kts 126°
2026-05-04 11:52 47.41650 19.30973 1691 ft 153 kts 124°
2026-05-04 11:52 47.41097 19.32425 2043 ft 171 kts 124°
2026-05-04 11:52 47.40494 19.34022 2414 ft 186 kts 123°
2026-05-04 11:52 47.39840 19.35758 2790 ft 202 kts 124°
2026-05-04 11:53 47.39102 19.37666 3138 ft 226 kts 123°
2026-05-04 11:53 47.38399 19.39835 3696 ft 246 kts 105°
2026-05-04 11:53 47.38545 19.42414 4186 ft 272 kts 69°
2026-05-04 11:53 47.39661 19.44719 5042 ft 281 kts 46°
2026-05-04 11:55 47.50181 19.58793 10823 ft 301 kts 47°
2026-05-04 11:55 47.51682 19.61067 11180 ft 320 kts 47°
2026-05-04 11:56 47.53267 19.63478 11344 ft 342 kts 47°
2026-05-04 11:56 47.54948 19.66086 11690 ft 355 kts 51°
2026-05-04 11:56 47.56209 19.69227 12279 ft 358 kts 71°
2026-05-04 11:56 47.56697 19.72815 12923 ft 358 kts 89°
2026-05-04 11:57 47.56360 19.76456 13569 ft 360 kts 109°
2026-05-04 11:57 47.55235 19.79761 14183 ft 361 kts 124°
2026-05-04 11:57 47.53824 19.82858 14768 ft 364 kts 124°
2026-05-04 11:57 47.52403 19.85960 15373 ft 366 kts 124°
2026-05-04 11:58 47.50987 19.89047 15906 ft 369 kts 124°
2026-05-04 11:58 47.49544 19.92199 16451 ft 372 kts 124°
2026-05-04 11:58 47.48090 19.95377 17023 ft 374 kts 123°
2026-05-04 11:58 47.46627 19.98574 17606 ft 377 kts 123°
2026-05-04 11:59 47.45156 20.01788 18231 ft 378 kts 123°
2026-05-04 11:59 47.43672 20.05023 18705 ft 382 kts 123°
2026-05-04 11:59 47.42172 20.08288 19176 ft 386 kts 123°
2026-05-04 11:59 47.40658 20.11581 19636 ft 390 kts 122°
2026-05-04 12:00 47.39140 20.14918 20124 ft 393 kts 120°
2026-05-04 12:00 47.37943 20.18540 20596 ft 394 kts 107°
2026-05-04 12:00 47.37301 20.22416 21035 ft 396 kts 96°
2026-05-04 12:00 47.37228 20.26479 21455 ft 397 kts 83°
2026-05-04 12:01 47.37748 20.30478 21917 ft 398 kts 72°
2026-05-04 12:01 47.38808 20.34259 22301 ft 401 kts 64°
2026-05-04 12:02 47.46082 20.56978 24675 ft 417 kts 64°
2026-05-04 12:03 47.47316 20.60868 25032 ft 419 kts 64°
2026-05-04 12:03 47.48555 20.64782 25380 ft 421 kts 63°
2026-05-04 12:03 47.49798 20.68719 25721 ft 424 kts 64°
2026-05-04 12:03 47.51048 20.72678 26053 ft 426 kts 64°
2026-05-04 12:04 47.52303 20.76660 26405 ft 428 kts 64°
2026-05-04 12:04 47.53561 20.80665 26735 ft 430 kts 64°
2026-05-04 12:04 47.54824 20.84693 27100 ft 433 kts 64°
2026-05-04 12:04 47.56093 20.88743 27449 ft 435 kts 63°
2026-05-04 12:05 47.57353 20.92759 27794 ft 437 kts 63°
2026-05-04 12:05 47.58636 20.96851 28147 ft 439 kts 64°
2026-05-04 12:05 47.59917 21.00945 28570 ft 438 kts 63°
2026-05-04 12:05 47.61198 21.05048 29074 ft 437 kts 63°
2026-05-04 12:06 47.62470 21.09131 29568 ft 436 kts 63°
2026-05-04 12:06 47.63737 21.13194 30058 ft 434 kts 63°
2026-05-04 12:06 47.65002 21.17258 30495 ft 433 kts 63°
2026-05-04 12:06 47.66258 21.21315 30906 ft 432 kts 63°
2026-05-04 12:07 47.67508 21.25367 31329 ft 431 kts 63°
2026-05-04 12:07 47.68757 21.29411 31759 ft 431 kts 63°
2026-05-04 12:07 47.69987 21.33394 32160 ft 430 kts 63°
2026-05-04 12:07 47.71231 21.37422 32588 ft 429 kts 63°
2026-05-04 12:08 47.72470 21.41444 33018 ft 428 kts 63°
2026-05-04 12:08 47.73703 21.45463 33431 ft 427 kts 63°
2026-05-04 12:08 47.74933 21.49475 33843 ft 426 kts 63°
2026-05-04 12:08 47.76158 21.53483 34246 ft 425 kts 63°
2026-05-04 12:09 47.77374 21.57480 34589 ft 425 kts 63°
2026-05-04 12:09 47.78591 21.61483 34896 ft 425 kts 63°
2026-05-04 12:09 47.79858 21.65445 35208 ft 424 kts 61°
2026-05-04 12:09 47.81197 21.69280 35500 ft 423 kts 59°
2026-05-04 12:10 47.82611 21.73115 35779 ft 422 kts 58°
2026-05-04 12:10 47.84045 21.76931 36088 ft 422 kts 58°
2026-05-04 12:10 47.85474 21.80749 36361 ft 422 kts 59°
2026-05-04 12:10 47.86885 21.84581 36636 ft 422 kts 59°
2026-05-04 12:11 47.88280 21.88429 36900 ft 422 kts 60°
2026-05-04 12:11 47.89661 21.92295 37080 ft 423 kts 60°
2026-05-04 12:11 47.92448 22.00146 37115 ft 434 kts 60°
2026-05-04 12:12 47.95262 22.08068 37113 ft 436 kts 60°
2026-05-04 12:12 47.98103 22.16079 37109 ft 437 kts 60°
2026-05-04 12:14 48.09395 22.48164 37115 ft 437 kts 60°
2026-05-04 12:15 48.12223 22.56221 37114 ft 437 kts 58°
2026-05-04 12:15 48.15962 22.63276 37121 ft 433 kts 43°
2026-05-04 12:16 48.20261 22.69518 37114 ft 433 kts 43°
2026-05-04 12:16 48.24573 22.75844 37113 ft 434 kts 43°
2026-05-04 12:17 48.28888 22.82176 37113 ft 434 kts 43°
2026-05-04 12:17 48.33207 22.88511 37119 ft 434 kts 43°
2026-05-04 12:18 48.37493 22.94818 37123 ft 434 kts 43°
2026-05-04 12:18 48.41796 23.01170 37126 ft 434 kts 43°
2026-05-04 12:19 48.46094 23.07542 37125 ft 433 kts 43°
2026-05-04 12:19 48.50387 23.13926 37119 ft 433 kts 43°
2026-05-04 12:20 48.54045 23.21055 37118 ft 436 kts 61°
2026-05-04 12:20 48.56333 23.29546 37115 ft 437 kts 67°
2026-05-04 12:21 48.58470 23.38138 37111 ft 438 kts 68°
2026-05-04 12:21 48.60619 23.46741 37113 ft 438 kts 68°
2026-05-04 12:22 48.62751 23.55358 37110 ft 438 kts 67°
2026-05-04 12:22 48.64852 23.63933 37104 ft 438 kts 68°
2026-05-04 12:23 48.66895 23.72613 37113 ft 438 kts 69°
2026-05-04 12:23 48.68854 23.81340 37100 ft 438 kts 69°
2026-05-04 12:24 48.70815 23.90065 37097 ft 438 kts 69°
2026-05-04 12:24 48.72774 23.98718 37097 ft 438 kts 69°
2026-05-04 12:25 48.74741 24.07445 37095 ft 438 kts 69°
2026-05-04 12:25 48.76703 24.16176 37084 ft 438 kts 69°
2026-05-04 12:26 48.78658 24.24917 37079 ft 438 kts 70°
2026-05-04 12:26 48.80593 24.33611 37081 ft 438 kts 70°
2026-05-04 12:27 48.82529 24.42366 37068 ft 438 kts 70°
2026-05-04 12:27 48.84470 24.51135 37067 ft 438 kts 70°
2026-05-04 12:28 48.86406 24.59911 37057 ft 438 kts 70°
2026-05-04 12:28 48.88339 24.68692 37057 ft 438 kts 68°
2026-05-04 12:29 48.90774 24.77093 37056 ft 437 kts 64°
2026-05-04 12:29 48.93267 24.85534 37054 ft 438 kts 64°
2026-05-04 12:30 48.95747 24.93991 37060 ft 438 kts 65°
2026-05-04 12:30 48.98217 25.02446 37054 ft 438 kts 65°
2026-05-04 12:31 49.00670 25.10857 37051 ft 437 kts 65°
2026-05-04 12:31 49.03131 25.19336 37051 ft 438 kts 65°
2026-05-04 12:32 49.06813 25.32073 37050 ft 438 kts 65°
2026-05-04 12:33 49.09266 25.40573 37051 ft 438 kts 65°
2026-05-04 12:33 49.11681 25.49025 37050 ft 438 kts 65°
2026-05-04 12:34 49.14115 25.57549 37053 ft 438 kts 65°
2026-05-04 12:34 49.16552 25.66072 37053 ft 438 kts 65°
2026-05-04 12:35 49.18984 25.74598 37047 ft 437 kts 65°
2026-05-04 12:35 49.21397 25.83070 37045 ft 437 kts 65°
2026-05-04 12:36 49.23818 25.91605 37043 ft 437 kts 65°
2026-05-04 12:36 49.26226 26.00152 37045 ft 437 kts 65°
2026-05-04 12:37 49.28628 26.08695 37026 ft 437 kts 65°
2026-05-04 12:37 49.31034 26.17252 37041 ft 437 kts 65°
2026-05-04 12:38 49.33424 26.25758 37048 ft 437 kts 66°
2026-05-04 12:38 49.35820 26.34328 37048 ft 437 kts 66°
2026-05-04 12:39 49.38209 26.42904 37039 ft 437 kts 66°
2026-05-04 12:39 49.40570 26.51433 37031 ft 437 kts 66°
2026-05-04 12:40 49.42923 26.60027 37035 ft 437 kts 66°
2026-05-04 12:40 49.45265 26.68640 37028 ft 437 kts 66°
2026-05-04 12:41 49.47605 26.77256 37038 ft 437 kts 66°
2026-05-04 12:41 49.49942 26.85877 37029 ft 437 kts 66°
2026-05-04 12:42 49.52257 26.94449 37036 ft 437 kts 67°
2026-05-04 12:42 49.54571 27.03078 37034 ft 436 kts 67°
2026-05-04 12:43 49.56879 27.11724 37036 ft 436 kts 67°
2026-05-04 12:43 49.59193 27.20362 37030 ft 436 kts 67°
2026-05-04 12:44 49.61482 27.28952 37022 ft 436 kts 67°
2026-05-04 12:44 49.63772 27.37611 37025 ft 436 kts 67°
2026-05-04 12:45 49.66055 27.46276 37017 ft 436 kts 67°
2026-05-04 12:45 49.68334 27.54938 37023 ft 436 kts 67°
2026-05-04 12:46 49.70593 27.63564 37021 ft 436 kts 67°
2026-05-04 12:46 49.72864 27.72256 37016 ft 436 kts 67°
2026-05-04 12:47 49.75129 27.80957 37019 ft 436 kts 67°
2026-05-04 12:47 49.77385 27.89669 37014 ft 436 kts 68°
2026-05-04 12:48 49.79614 27.98335 37018 ft 436 kts 68°
2026-05-04 12:48 49.81844 28.07061 37013 ft 436 kts 68°
2026-05-04 12:49 49.84068 28.15808 37017 ft 436 kts 68°
2026-05-04 12:49 49.86289 28.24560 37012 ft 436 kts 68°
2026-05-04 12:50 49.88508 28.33319 37015 ft 436 kts 68°
2026-05-04 12:50 49.90706 28.42027 37016 ft 436 kts 68°
2026-05-04 12:51 49.92907 28.50803 37010 ft 436 kts 68°
2026-05-04 12:51 49.95099 28.59575 37013 ft 436 kts 68°
2026-05-04 12:52 49.97292 28.68361 37006 ft 436 kts 68°
2026-05-04 12:52 49.99465 28.77092 37009 ft 435 kts 68°
2026-05-04 12:53 50.01628 28.85847 37018 ft 432 kts 68°
2026-05-04 12:53 50.02701 28.90218 36513 ft 434 kts 68°
2026-05-04 12:53 50.03776 28.94611 35855 ft 435 kts 68°
2026-05-04 12:53 50.04852 28.99019 35197 ft 436 kts 69°
2026-05-04 12:54 50.05924 29.03443 34583 ft 437 kts 69°
2026-05-04 12:54 50.06979 29.07816 34008 ft 437 kts 69°
2026-05-04 12:54 50.08045 29.12242 33277 ft 438 kts 69°
2026-05-04 12:54 50.09111 29.16688 32540 ft 439 kts 69°
2026-05-04 12:55 50.10175 29.21142 31828 ft 439 kts 69°
2026-05-04 12:55 50.11245 29.25629 30791 ft 446 kts 69°
2026-05-04 12:55 50.12332 29.30191 29783 ft 452 kts 69°
2026-05-04 12:55 50.13428 29.34797 28717 ft 454 kts 69°
2026-05-04 12:56 50.14528 29.39427 27684 ft 456 kts 69°
2026-05-04 12:56 50.15618 29.44018 26658 ft 458 kts 69°
2026-05-04 12:56 50.16724 29.48687 25617 ft 459 kts 69°
2026-05-04 12:56 50.17832 29.53369 24575 ft 461 kts 70°
2026-05-04 12:57 50.19003 29.58013 23727 ft 457 kts 65°
2026-05-04 12:57 50.20364 29.62462 22863 ft 451 kts 64°
2026-05-04 12:57 50.21712 29.66852 21979 ft 446 kts 64°
2026-05-04 12:57 50.23039 29.71184 21100 ft 441 kts 64°
2026-05-04 12:58 50.24353 29.75479 20292 ft 436 kts 64°
2026-05-04 12:58 50.25633 29.79672 19508 ft 431 kts 63°
2026-05-04 12:58 50.26916 29.83878 18736 ft 426 kts 63°
2026-05-04 12:58 50.28177 29.88019 18190 ft 416 kts 63°
2026-05-04 12:59 50.29406 29.92063 17509 ft 408 kts 63°
2026-05-04 12:59 50.30617 29.96055 16773 ft 404 kts 63°
2026-05-04 12:59 50.31815 30.00007 16070 ft 400 kts 63°
2026-05-04 12:59 50.32998 30.03926 15400 ft 397 kts 63°
2026-05-04 13:00 50.34167 30.07817 14759 ft 393 kts 63°
2026-05-04 13:00 50.35308 30.11620 14140 ft 389 kts 62°
2026-05-04 13:00 50.36455 30.15431 13470 ft 386 kts 62°
2026-05-04 13:00 50.37593 30.19221 12756 ft 383 kts 63°
2026-05-04 13:01 50.38720 30.22986 12040 ft 380 kts 63°
2026-05-04 13:01 50.39837 30.26725 11365 ft 377 kts 63°
2026-05-04 13:01 50.40925 30.30358 11209 ft 359 kts 63°
2026-05-04 13:01 50.41974 30.33818 10982 ft 345 kts 62°
2026-05-04 13:02 50.43004 30.37171 10710 ft 335 kts 62°
2026-05-04 13:02 50.43989 30.40363 10503 ft 325 kts 62°
2026-05-04 13:02 50.44967 30.43537 10149 ft 321 kts 62°
2026-05-04 13:02 50.45916 30.46636 10030 ft 310 kts 63°
2026-05-04 13:03 50.46834 30.49645 9899 ft 300 kts 63°
2026-05-04 13:03 50.47717 30.52553 9779 ft 291 kts 63°
2026-05-04 13:03 50.48575 30.55387 9525 ft 286 kts 63°
2026-05-04 13:03 50.49427 30.58201 9205 ft 285 kts 63°
2026-05-04 13:04 50.50277 30.61004 8872 ft 284 kts 63°
2026-05-04 13:04 50.51114 30.63763 8556 ft 283 kts 63°
2026-05-04 13:04 50.51958 30.66553 8249 ft 282 kts 63°
2026-05-04 13:04 50.52800 30.69335 7952 ft 280 kts 64°
2026-05-04 13:05 50.53621 30.72057 7835 ft 271 kts 63°
2026-05-04 13:05 50.54481 30.74639 7698 ft 262 kts 52°
2026-05-04 13:05 50.55758 30.76583 7580 ft 252 kts 30°
2026-05-04 13:05 50.57333 30.77635 7406 ft 244 kts
2026-05-04 13:06 50.59008 30.77884 7121 ft 242 kts
2026-05-04 13:06 50.60581 30.78742 6814 ft 243 kts 36°
2026-05-04 13:06 50.61589 30.80797 6537 ft 245 kts 69°
2026-05-04 13:06 50.61791 30.83438 6209 ft 245 kts 93°
2026-05-04 13:07 50.61704 30.86137 5858 ft 247 kts 94°
2026-05-04 13:07 50.61331 30.88731 5425 ft 243 kts 119°
2026-05-04 13:07 50.60245 30.90705 5003 ft 239 kts 147°
2026-05-04 13:07 50.58740 30.91590 4781 ft 225 kts 175°
2026-05-04 13:08 50.57233 30.91770 4614 ft 212 kts 174°
2026-05-04 13:08 50.55786 30.91975 4225 ft 211 kts 179°
2026-05-04 13:08 50.54340 30.91976 3933 ft 206 kts 183°
2026-05-04 13:08 50.52911 30.91889 3668 ft 207 kts 184°
2026-05-04 13:09 50.51465 30.91784 3386 ft 209 kts 183°
2026-05-04 13:09 50.50008 30.91676 3105 ft 210 kts 183°
2026-05-04 13:09 50.48575 30.91571 2836 ft 203 kts 183°
2026-05-04 13:09 50.47181 30.91467 2565 ft 199 kts 183°
2026-05-04 13:10 50.45822 30.91367 2331 ft 190 kts 182°
2026-05-04 13:10 50.44543 30.91273 2084 ft 177 kts 183°
2026-05-04 13:10 50.43370 30.91186 1855 ft 167 kts 183°
2026-05-04 13:10 50.42227 30.91102 1650 ft 164 kts 182°
2026-05-04 13:11 50.41146 30.91023 1424 ft 149 kts 182°
2026-05-04 13:11 50.40131 30.90948 1235 ft 144 kts 183°
2026-05-04 13:11 50.39147 30.90875 1056 ft 140 kts 181°
2026-05-04 13:11 50.38174 30.90805 872 ft 139 kts 182°
2026-05-04 13:12 50.37211 30.90744 689 ft 139 kts 182°
2026-05-04 13:12 50.36252 30.90670 521 ft 137 kts 183°
2026-05-04 13:12 50.35342 30.90593 415 ft 120 kts 183°
2026-05-04 13:12 50.34674 30.90546 424 ft 71 kts 182°
2026-05-04 13:13 50.34351 30.90518 415 ft 27 kts 187°
2026-05-04 13:13 50.34173 30.90426 413 ft 26 kts 208°
2026-05-04 13:13 50.34043 30.90289 406 ft 14 kts 236°
2026-05-04 13:13 50.34078 30.90177 413 ft 14 kts 351°
2026-05-04 13:14 50.34176 30.90185 415 ft 15 kts
2026-05-04 13:14 50.34288 30.90194 413 ft 17 kts
2026-05-04 13:14 50.34412 30.90203 414 ft 19 kts
2026-05-04 13:14 50.34554 30.90213 410 ft 21 kts
2026-05-04 13:15 50.34711 30.90225 413 ft 24 kts
2026-05-04 13:15 50.34839 30.90231 408 ft 12 kts 354°
2026-05-04 13:15 50.34891 30.90133 414 ft 14 kts 275°
2026-05-04 13:15 50.34922 30.90008 415 ft 13 kts 333°
2026-05-04 13:16 50.35021 30.90005 413 ft 15 kts
2026-05-04 13:16 50.35112 30.90011 415 ft 7 kts
2026-05-04 13:16 50.35122 30.90057 415 ft 6 kts 93°
2026-05-04 13:16 50.35120 30.90127 415 ft 4 kts 92°
2026-05-04 13:17 50.35119 30.90143 415 ft 0 kts 92°